• en Suisse
  • Liste des pays
  • À 7 jours
  • Température de l'eau
  • Carte satellitaire
  • Carte météo
  • Widgets météo
  • user-avatar
    Se connecter

    Météo par heure à Mulhule

    Ce jour, 17 Octobre, Mardi

    Heure Température Précipitation Vent Pression Humidité
    00:00 +33°C° 0 mm 1 m/s 757 mmHg 57%
    01:00 +33°C° 0 mm 1 m/s 757 mmHg 58%
    02:00 +32°C° 0 mm 1 m/s 757 mmHg 59%
    03:00 +32°C° 0 mm 1 m/s 756 mmHg 61%
    04:00 +32°C° 0 mm 1 m/s 757 mmHg 62%
    05:00 +32°C° 0 mm 1 m/s 757 mmHg 63%
    06:00 +31°C° 0 mm 1 m/s 757 mmHg 64%
    07:00 +32°C° 0,1 mm 1 m/s 758 mmHg 60%
    08:00 +33°C° 0,1 mm 1 m/s 758 mmHg 57%
    09:00 +34°C° 0,1 mm 1 m/s 758 mmHg 53%
    10:00 +36°C° 0 mm 2 m/s 758 mmHg 48%
    11:00 +37°C° 0 mm 2 m/s 757 mmHg 44%
    12:00 +38°C° 0 mm 2 m/s 757 mmHg 39%
    13:00 +38°C° 0 mm 3 m/s 756 mmHg 39%
    14:00 +39°C° 0 mm 3 m/s 756 mmHg 40%
    15:00 +40°C° 0 mm 4 m/s 755 mmHg 40%
    16:00 +38°C° 0 mm 4 m/s 755 mmHg 44%
    17:00 +37°C° 0 mm 3 m/s 755 mmHg 49%
    18:00 +36°C° 0 mm 3 m/s 755 mmHg 54%
    19:00 +36°C° 0 mm 3 m/s 755 mmHg 55%
    20:00 +35°C° 0 mm 2 m/s 756 mmHg 57%
    21:00 +35°C° 0 mm 2 m/s 756 mmHg 59%
    22:00 +35°C° 0 mm 2 m/s 756 mmHg 61%
    23:00 +34°C° 0 mm 2 m/s 756 mmHg 62%

    Demain, 18 Octobre, Mercredi

    Heure Température Précipitation Vent Pression Humidité
    00:00 +34°C° 0 mm 2 m/s 757 mmHg 64%
    01:00 +34°C° 0 mm 2 m/s 756 mmHg 65%
    02:00 +32°C° 0 mm 1 m/s 756 mmHg 66%
    03:00 +32°C° 0 mm 1 m/s 756 mmHg 68%
    04:00 +32°C° 0,1 mm 1 m/s 756 mmHg 69%
    05:00 +32°C° 0,1 mm 1 m/s 757 mmHg 70%
    06:00 +32°C° 0,1 mm 1 m/s 757 mmHg 71%
    07:00 +32°C° 0,2 mm 1 m/s 757 mmHg 68%
    08:00 +33°C° 0,2 mm 1 m/s 758 mmHg 66%
    09:00 +33°C° 0,2 mm 1 m/s 758 mmHg 63%
    10:00 +36°C° 0 mm 2 m/s 758 mmHg 58%
    11:00 +37°C° 0 mm 2 m/s 757 mmHg 52%
    12:00 +38°C° 0 mm 3 m/s 757 mmHg 47%
    13:00 +38°C° 0 mm 3 m/s 756 mmHg 47%
    14:00 +38°C° 0 mm 4 m/s 755 mmHg 47%
    15:00 +40°C° 0 mm 4 m/s 754 mmHg 47%
    16:00 +38°C° 0,1 mm 4 m/s 754 mmHg 51%
    17:00 +37°C° 0,1 mm 4 m/s 755 mmHg 55%
    18:00 +36°C° 0,1 mm 3 m/s 755 mmHg 59%
    19:00 +36°C° 0,1 mm 3 m/s 755 mmHg 61%
    20:00 +35°C° 0,1 mm 3 m/s 756 mmHg 63%
    21:00 +35°C° 0,1 mm 3 m/s 757 mmHg 64%
    22:00 +35°C° 0 mm 3 m/s 757 mmHg 66%
    23:00 +34°C° 0 mm 3 m/s 757 mmHg 67%

    Après-demain, 19 Octobre, Jeudi

    Heure Température Précipitation Vent Pression Humidité
    00:00 +34°C° 0 mm 2 m/s 757 mmHg 68%
    01:00 +34°C° 0,1 mm 2 m/s 756 mmHg 68%
    02:00 +34°C° 0,1 mm 2 m/s 756 mmHg 68%
    03:00 +32°C° 0,1 mm 2 m/s 756 mmHg 68%
    04:00 +32°C° 0,4 mm 2 m/s 756 mmHg 68%
    05:00 +32°C° 0,4 mm 2 m/s 757 mmHg 68%
    06:00 +32°C° 0,4 mm 2 m/s 757 mmHg 68%
    07:00 +34°C° 0 mm 3 m/s 757 mmHg 65%
    08:00 +34°C° 0 mm 3 m/s 758 mmHg 62%
    09:00 +35°C° 0 mm 3 m/s 759 mmHg 59%
    10:00 +36°C° 0,1 mm 3 m/s 758 mmHg 54%
    11:00 +37°C° 0,1 mm 4 m/s 758 mmHg 49%
    12:00 +38°C° 0,1 mm 4 m/s 757 mmHg 44%
    13:00 +38°C° 0 mm 4 m/s 757 mmHg 43%
    14:00 +40°C° 0 mm 4 m/s 756 mmHg 42%
    15:00 +40°C° 0 mm 5 m/s 755 mmHg 41%
    16:00 +39°C° 0 mm 5 m/s 756 mmHg 44%
    17:00 +37°C° 0 mm 4 m/s 756 mmHg 47%
    18:00 +36°C° 0 mm 4 m/s 756 mmHg 50%
    19:00 +36°C° 0 mm 4 m/s 757 mmHg 51%
    20:00 +35°C° 0 mm 4 m/s 757 mmHg 53%
    21:00 +35°C° 0 mm 4 m/s 758 mmHg 54%
    22:00 +34°C° 0 mm 4 m/s 758 mmHg 55%
    23:00 +34°C° 0 mm 4 m/s 758 mmHg 55%

    20 Octobre, Vendredi

    Heure Température Précipitation Vent Pression Humidité
    00:00 +34°C° 0 mm 3 m/s 758 mmHg 56%
    01:00 +34°C° 0 mm 3 m/s 757 mmHg 57%
    02:00 +33°C° 0 mm 3 m/s 757 mmHg 58%
    03:00 +33°C° 0 mm 3 m/s 757 mmHg 58%
    04:00 +33°C° 0 mm 3 m/s 757 mmHg 60%
    05:00 +33°C° 0 mm 3 m/s 757 mmHg 61%
    06:00 +31°C° 0 mm 3 m/s 758 mmHg 63%
    07:00 +33°C° 0 mm 3 m/s 758 mmHg 58%
    08:00 +34°C° 0 mm 3 m/s 759 mmHg 54%
    09:00 +35°C° 0 mm 4 m/s 759 mmHg 49%
    10:00 +37°C° 0 mm 4 m/s 759 mmHg 45%
    11:00 +39°C° 0 mm 5 m/s 758 mmHg 41%
    12:00 +40°C° 0 mm 5 m/s 758 mmHg 37%
    13:00 +40°C° 0 mm 5 m/s 757 mmHg 35%
    14:00 +40°C° 0 mm 5 m/s 756 mmHg 33%
    15:00 +40°C° 0 mm 5 m/s 756 mmHg 32%
    16:00 +39°C° 0 mm 5 m/s 756 mmHg 35%
    17:00 +37°C° 0 mm 5 m/s 757 mmHg 38%
    18:00 +36°C° 0 mm 5 m/s 757 mmHg 42%
    19:00 +36°C° 0 mm 5 m/s 757 mmHg 45%
    20:00 +35°C° 0 mm 5 m/s 758 mmHg 48%
    21:00 +35°C° 0 mm 5 m/s 758 mmHg 51%
    22:00 +34°C° 0 mm 5 m/s 758 mmHg 53%
    23:00 +34°C° 0 mm 5 m/s 758 mmHg 54%

    21 Octobre, Samedi

    Heure Température Précipitation Vent Pression Humidité
    00:00 +33°C° 0 mm 4 m/s 758 mmHg 55%
    01:00 +33°C° 0 mm 4 m/s 757 mmHg 57%
    02:00 +33°C° 0 mm 4 m/s 757 mmHg 58%
    03:00 +33°C° 0 mm 4 m/s 757 mmHg 60%
    04:00 +32°C° 0 mm 4 m/s 757 mmHg 61%
    05:00 +32°C° 0 mm 4 m/s 758 mmHg 62%
    06:00 +32°C° 0 mm 4 m/s 758 mmHg 63%
    07:00 +33°C° 0 mm 4 m/s 759 mmHg 57%
    08:00 +34°C° 0 mm 4 m/s 759 mmHg 51%
    09:00 +36°C° 0 mm 5 m/s 759 mmHg 44%
    10:00 +37°C° 0 mm 5 m/s 759 mmHg 41%
    11:00 +39°C° 0 mm 5 m/s 758 mmHg 38%
    12:00 +40°C° 0 mm 5 m/s 757 mmHg 35%
    13:00 +40°C° 0 mm 5 m/s 757 mmHg 35%
    14:00 +40°C° 0 mm 6 m/s 756 mmHg 35%
    15:00 +40°C° 0 mm 6 m/s 756 mmHg 35%
    16:00 +39°C° 0 mm 5 m/s 756 mmHg 38%
    17:00 +37°C° 0 mm 5 m/s 756 mmHg 41%
    18:00 +36°C° 0 mm 5 m/s 756 mmHg 44%
    19:00 +36°C° 0 mm 5 m/s 757 mmHg 47%
    20:00 +35°C° 0 mm 5 m/s 757 mmHg 50%
    21:00 +35°C° 0 mm 5 m/s 758 mmHg 53%
    22:00 +34°C° 0 mm 4 m/s 758 mmHg 54%
    23:00 +34°C° 0 mm 4 m/s 757 mmHg 55%

    22 Octobre, Dimanche

    Heure Température Précipitation Vent Pression Humidité
    00:00 +34°C° 0 mm 4 m/s 757 mmHg 56%
    01:00 +33°C° 0 mm 4 m/s 757 mmHg 57%
    02:00 +33°C° 0 mm 3 m/s 756 mmHg 58%
    03:00 +33°C° 0 mm 3 m/s 756 mmHg 59%
    04:00 +31°C° 0 mm 3 m/s 757 mmHg 60%
    05:00 +31°C° 0 mm 3 m/s 757 mmHg 60%
    06:00 +31°C° 0 mm 3 m/s 758 mmHg 61%
    07:00 +33°C° 0 mm 3 m/s 758 mmHg 55%
    08:00 +35°C° 0 mm 4 m/s 758 mmHg 48%
    09:00 +36°C° 0 mm 4 m/s 759 mmHg 42%
    10:00 +37°C° 0 mm 5 m/s 758 mmHg 39%
    11:00 +39°C° 0 mm 5 m/s 757 mmHg 36%
    12:00 +40°C° 0 mm 5 m/s 757 mmHg 33%
    13:00 +40°C° 0 mm 5 m/s 756 mmHg 33%
    14:00 +40°C° 0 mm 5 m/s 756 mmHg 32%
    15:00 +41°C° 0 mm 5 m/s 755 mmHg 32%
    16:00 +40°C° 0 mm 5 m/s 755 mmHg 35%
    17:00 +39°C° 0 mm 5 m/s 756 mmHg 38%
    18:00 +37°C° 0 mm 5 m/s 756 mmHg 40%
    19:00 +36°C° 0 mm 5 m/s 756 mmHg 43%
    20:00 +36°C° 0 mm 5 m/s 757 mmHg 45%
    21:00 +35°C° 0 mm 5 m/s 757 mmHg 47%
    22:00 +35°C° 0 mm 5 m/s 757 mmHg 49%
    23:00 +34°C° 0 mm 4 m/s 757 mmHg 51%
    Voir plus